Zurück zum Katalog

SL-8 R/B

AktivLEO
NORAD 5847·ROCKET BODY·🇷🇺 Russia

Gestartet Feb 25, 1972 von Plesetsk Cosmodrome

Loading…

Nächste Überflüge (nächste 24 Stunden)

TLE

AktuellSource: Space-Track

Epoche: Sep 14, 2026, 05:49 UTC

1 05847U 72009B   26257.24282721  .00000051  00000-0  70905-4 0  9993
2 05847  74.0498 180.8517 0029186  76.8594  84.8309 13.79467166745269

Verfolge SL-8 R/B in Echtzeit mit AllMySat

Download on the App Store